Location: DaVinci Observatory
(43.1080°N, 78.6453°W)
Time: 13:18:53
(UTC-04:00)

N. Korean satellite - Pass Details

Date: 08 October 2017
Orbit: 459 x 517 km, 97.2° (Epoch: 22 October)

Event Time Altitude Azimuth Distance (km) Brightness Sun altitude
Rises 20:10:07 0° 202° (SSW) 2,575 10.4 -16.7°
Reaches altitude 10° 20:12:43 10° 222° (SW) 1,686 9.7 -17.2°
Maximum altitude 20:15:15 18° 266° (W) 1,260 9.7 -17.6°
Drops below altitude 10° 20:17:47 10° 311° (NW) 1,673 10.1 -18.1°
Sets 20:20:21 0° 331° (NNW) 2,546 10.8 -18.5°
